Location: Passo di Treia
(43.2833°N, 13.3333°E)
Time: 19:44:53
(UTC+00:00)

Cosmos 2219 Rocket - Pass Details

Date: 09 December 2019
Orbit: 826 x 848 km, 71.0° (Epoch: 25 January)

Event Time Altitude Azimuth Distance (km) Brightness Sun altitude
Rises 16:15:06 0° 213° (SSW) 3,358 6.4 -8.0°
Reaches altitude 10° 16:17:33 10° 216° (SW) 2,431 5.7 -8.4°
Maximum altitude 16:23:04 63° 298° (WNW) 931 2.7 -9.3°
Drops below altitude 10° 16:28:40 10° 19° (NNE) 2,461 4.2 -10.2°
Enters shadow 16:30:41 - 22° (NNE) 3,217 4.8 -10.6°
